This is the latest recevied weather packets stored in our database for station/object KC5DAQ-28. If no packets are shown the sender has not sent any weather packets the latest 1 day(s).
| Time | Temp. | Humidity | Pressure | Rain* | Wind** | Luminosity | Snow |
|---|---|---|---|---|---|---|---|
| 1778040662 | 25.56° C | 86% | 1003.3 hPa | 0 mm | 2.24 m/s, 128° | 0 W/m² | - |
| 1778040602 | 25.56° C | 86% | 1003.3 hPa | 0 mm | 0.89 m/s, 199° | 0 W/m² | - |
| 1778040543 | 25.56° C | 86% | 1003.3 hPa | 0 mm | 1.34 m/s, 111° | 0 W/m² | - |
| 1778040482 | 25.56° C | 86% | 1003.2 hPa | 0 mm | 1.34 m/s, 110° | 0 W/m² | - |
| 1778040424 | 25.56° C | 86% | 1003.3 hPa | 0 mm | 1.34 m/s, 151° | 0 W/m² | - |
| 1778040362 | 25.56° C | 86% | 1003.2 hPa | 0 mm | 1.79 m/s, 131° | 0 W/m² | - |
| 1778040304 | 25.56° C | 86% | 1003.2 hPa | 0 mm | 1.79 m/s, 155° | 0 W/m² | - |
| 1778040242 | 25.56° C | 86% | 1003.1 hPa | 0 mm | 1.79 m/s, 164° | 0 W/m² | - |
| 1778040183 | 25.56° C | 85% | 1003.1 hPa | 0 mm | 0.89 m/s, 152° | 0 W/m² | - |
| 1778040124 | 25.56° C | 85% | 1003.1 hPa | 0 mm | 0.89 m/s, 157° | 0 W/m² | - |
| 1778040063 | 25.56° C | 85% | 1003.1 hPa | 0 mm | 1.79 m/s, 130° | 0 W/m² | - |
| 1778040005 | 25.56° C | 85% | 1003.1 hPa | 0 mm | 1.79 m/s, 193° | 0 W/m² | - |
| 1778039941 | 25.56° C | 85% | 1003 hPa | 0 mm | 1.34 m/s, 171° | 0 W/m² | - |
| 1778039883 | 25.56° C | 85% | 1003 hPa | 0 mm | 0.89 m/s, 166° | 0 W/m² | - |
| 1778039822 | 25.56° C | 85% | 1003 hPa | 0 mm | 1.34 m/s, 172° | 0 W/m² | - |
| 1778039762 | 25.56° C | 85% | 1003.1 hPa | 0 mm | 2.24 m/s, 164° | 0 W/m² | - |
| 1778039704 | 25.56° C | 85% | 1003.1 hPa | 0 mm | 1.79 m/s, 127° | 0 W/m² | - |
| 1778039644 | 25.56° C | 85% | 1003.1 hPa | 0 mm | 1.34 m/s, 131° | 0 W/m² | - |
| 1778039582 | 25.56° C | 85% | 1003.1 hPa | 0 mm | 1.79 m/s, 116° | 0 W/m² | - |
| 1778039524 | 25.56° C | 85% | 1003 hPa | 0 mm | 1.79 m/s, 188° | 0 W/m² | - |
| 1778039462 | 25.56° C | 85% | 1003 hPa | 0 mm | 1.79 m/s, 138° | 0 W/m² | - |
| 1778039402 | 25.56° C | 85% | 1003.1 hPa | 0 mm | 1.79 m/s, 142° | 0 W/m² | - |
| 1778039343 | 25.56° C | 85% | 1003.1 hPa | 0 mm | 1.79 m/s, 175° | 0 W/m² | - |
| 1778039282 | 25.56° C | 85% | 1003.1 hPa | 0 mm | 1.79 m/s, 169° | 0 W/m² | - |
| 1778039223 | 25.56° C | 85% | 1003.1 hPa | 0 mm | 1.34 m/s, 131° | 0 W/m² | - |
* Rain latest hour (hover to see other rain measurements)
** Current wind speed in m/s (hover to see current wind gust speed)